| time (UTC) | temp F | wind direction | speed knots | gust knots | rain 1hr in | rain 24hr in | rain mn in | humidity % | barometer mb |
| 20260506234544 | 52 | 317 | 6.1 | 17.4 | 0.00 | 1.05 | 0.00 | 84 | 1010.8 |
| 20260506233039 | 52 | 308 | 9.6 | 17.4 | 0.00 | 1.05 | 0.00 | 83 | 1010.6 |
| 20260506231535 | 53 | 337 | 7.8 | 13.0 | 0.00 | 1.05 | 0.00 | 82 | 1010.6 |
| 20260506230044 | 53 | 331 | 5.2 | 16.5 | 0.00 | 1.05 | 0.00 | 82 | 1010.4 |
| 20260506224534 | 53 | 295 | 7.8 | 20.0 | 0.00 | 1.21 | 0.00 | 83 | 1010.4 |
| 20260506223040 | 53 | 314 | 7.8 | 14.8 | 0.00 | 1.21 | 0.00 | 83 | 1010.5 |
| 20260506221526 | 53 | 292 | 7.0 | 14.8 | 0.00 | 1.21 | 0.00 | 83 | 1010.4 |
| 20260506220025 | 53 | 319 | 6.1 | 14.8 | 0.00 | 1.21 | 0.00 | 83 | 1010.4 |
| 20260506214536 | 53 | 327 | 5.2 | 9.6 | 0.00 | 1.30 | 1.21 | 83 | 1010.2 |
| 20260506213023 | 53 | 290 | 4.3 | 8.7 | 0.00 | 1.30 | 1.21 | 84 | 1010.2 |
| 20260506211521 | 53 | 305 | 5.2 | 12.2 | 0.00 | 1.30 | 1.21 | 85 | 1010.1 |
| 20260506210026 | 53 | 303 | 7.8 | 13.0 | 0.00 | 1.30 | 1.21 | 84 | 1010.1 |
| 20260506204520 | 53 | 276 | 2.6 | 10.4 | 0.00 | 1.33 | 1.21 | 82 | 1010.1 |
| 20260506203020 | 53 | 283 | 6.1 | 10.4 | 0.00 | 1.33 | 1.21 | 81 | 1009.9 |
| 20260506201518 | 54 | 327 | 3.5 | 12.2 | 0.00 | 1.33 | 1.21 | 79 | 1009.8 |
| 20260506200018 | 53 | 269 | 5.2 | 11.3 | 0.00 | 1.33 | 1.21 | 81 | 1009.5 |
| 20260506194516 | 52 | 292 | 5.2 | 12.2 | 0.00 | 1.33 | 1.21 | 86 | 1009.2 |
| 20260506193015 | 52 | 291 | 5.2 | 13.9 | 0.00 | 1.33 | 1.21 | 85 | 1009.9 |
| 20260506191515 | 55 | 46 | 7.0 | 16.5 | 0.00 | 1.33 | 1.21 | 81 | 1010.2 |
| 20260506190015 | 54 | 285 | 8.7 | 14.8 | 0.00 | 1.33 | 1.21 | 82 | 1009.8 |
| 20260506184522 | 54 | 334 | 6.1 | 12.2 | 0.00 | 1.33 | 1.21 | 83 | 1008.7 |
| 20260506183021 | 54 | 337 | 1.7 | 8.7 | 0.00 | 1.33 | 1.21 | 82 | 1008.3 |
| 20260506181514 | 54 | 297 | 3.5 | 11.3 | 0.00 | 1.33 | 1.21 | 82 | 1008.0 |
| 20260506180010 | 54 | 300 | 7.0 | 11.3 | 0.00 | 1.33 | 1.21 | 83 | 1007.8 |
| 20260506174509 | 54 | 308 | 3.5 | 13.9 | 0.00 | 1.33 | 1.21 | 84 | 1007.9 |
| 20260506173008 | 54 | 340 | 3.5 | 9.6 | 0.00 | 1.33 | 1.21 | 84 | 1007.8 |
| 20260506171508 | 55 | 302 | 6.1 | 12.2 | 0.00 | 1.33 | 1.21 | 83 | 1007.6 |
| 20260506170008 | 54 | 9 | 4.3 | 12.2 | 0.01 | 1.33 | 1.21 | 83 | 1007.5 |
| 20260506164509 | 54 | 342 | 8.7 | 15.6 | 0.02 | 1.33 | 1.21 | 83 | 1007.1 |
| 20260506163008 | 54 | 271 | 8.7 | 18.2 | 0.07 | 1.33 | 1.21 | 83 | 1006.7 |
| 20260506161505 | 53 | 291 | 7.8 | 16.5 | 0.16 | 1.33 | 1.21 | 86 | 1006.3 |
| 20260506160009 | 53 | 305 | 5.2 | 13.0 | 0.39 | 1.32 | 1.20 | 88 | 1006.5 |
| 20260506154505 | 52 | 275 | 6.1 | 13.0 | 0.49 | 1.31 | 1.19 | 88 | 1006.7 |
| 20260506153010 | 52 | 279 | 4.3 | 8.7 | 0.56 | 1.26 | 1.13 | 88 | 1007.4 |
| 20260506151503 | 52 | 337 | 8.7 | 18.2 | 0.50 | 1.17 | 1.05 | 87 | 1006.9 |
| 20260506144559 | 55 | 342 | 10.4 | 19.1 | 0.18 | 0.83 | 0.70 | 86 | 1005.1 |
| 20260506143053 | 56 | 315 | 5.2 | 12.2 | 0.06 | 0.71 | 0.57 | 86 | 1006.5 |
| 20260506141552 | 58 | 327 | 5.2 | 9.6 | 0.03 | 0.68 | 0.55 | 85 | 1006.2 |
| 20260506140052 | 61 | 45 | 3.5 | 11.3 | 0.01 | 0.66 | 0.53 | 79 | 1006.6 |
| 20260506134549 | 61 | 224 | 5.2 | 10.4 | 0.00 | 0.66 | 0.52 | 80 | 1006.3 |
| 20260506133048 | 61 | 130 | 2.6 | 13.9 | 0.01 | 0.66 | 0.52 | 81 | 1006.7 |
| 20260506131552 | 60 | 236 | 2.6 | 9.6 | 0.04 | 0.66 | 0.52 | 82 | 1006.8 |
| 20260506130045 | 60 | 231 | 7.0 | 11.3 | 0.05 | 0.66 | 0.52 | 82 | 1006.9 |
| 20260506124544 | 60 | 209 | 5.2 | 13.0 | 0.06 | 0.66 | 0.52 | 83 | 1007.0 |
| 20260506123043 | 58 | 207 | 6.1 | 14.8 | 0.05 | 0.65 | 0.51 | 84 | 1007.3 |
| 20260506121543 | 60 | 234 | 6.1 | 15.6 | 0.02 | 0.62 | 0.48 | 80 | 1007.5 |
| 20260506120043 | 60 | 168 | 9.6 | 18.2 | 0.01 | 0.61 | 0.47 | 77 | 1007.1 |
| 20260506114541 | 60 | 227 | 9.6 | 15.6 | 0.00 | 0.61 | 0.46 | 79 | 1006.8 |
| 20260506113042 | 60 | 233 | 5.2 | 12.2 | 0.00 | 0.61 | 0.46 | 78 | 1006.8 |
| 20260506111536 | 60 | 209 | 7.0 | 12.2 | 0.00 | 0.61 | 0.46 | 78 | 1007.0 |
| 20260506110035 | 60 | 218 | 7.8 | 12.2 | 0.00 | 0.61 | 0.46 | 80 | 1007.2 |
| 20260506104535 | 60 | 211 | 6.1 | 13.9 | 0.00 | 0.61 | 0.46 | 82 | 1007.4 |
| 20260506103029 | 58 | 40 | 0.9 | 6.1 | 0.00 | 0.61 | 0.46 | 87 | 1007.5 |
| 20260506101528 | 57 | 124 | 1.7 | 7.0 | 0.02 | 0.61 | 0.46 | 87 | 1007.7 |
| 20260506100027 | 56 | 333 | 1.7 | 4.3 | 0.07 | 0.61 | 0.46 | 88 | 1007.9 |
| 20260506094527 | 56 | 256 | 0.9 | 3.5 | 0.13 | 0.61 | 0.46 | 88 | 1008.0 |
| 20260506093025 | 55 | 75 | 2.6 | 7.0 | 0.16 | 0.61 | 0.46 | 87 | 1007.8 |
| 20260506091525 | 55 | 181 | 1.7 | 9.6 | 0.14 | 0.59 | 0.44 | 87 | 1007.4 |
| 20260506090026 | 56 | 226 | 1.7 | 13.0 | 0.09 | 0.54 | 0.39 | 87 | 1007.5 |
| 20260506084523 | 56 | 220 | 6.1 | 12.2 | 0.03 | 0.53 | 0.33 | 85 | 1007.4 |
| 20260506083023 | 57 | 217 | 6.1 | 11.3 | 0.01 | 0.50 | 0.30 | 85 | 1007.0 |
| 20260506081521 | 57 | 205 | 7.0 | 12.2 | 0.01 | 0.50 | 0.30 | 86 | 1007.1 |
| 20260506073018 | 56 | 202 | 6.1 | 14.8 | 0.01 | 0.63 | 0.28 | 86 | 1007.5 |
| 20260506071514 | 56 | 206 | 6.1 | 13.9 | 0.01 | 0.63 | 0.28 | 86 | 1007.8 |
| 20260506061509 | 56 | 227 | 3.5 | 7.0 | 0.02 | 0.63 | 0.28 | 85 | 1007.7 |
| 20260506050106 | 56 | 232 | 6.1 | 13.0 | 0.04 | 0.60 | 0.25 | 88 | 1008.3 |
| 20260506044556 | 56 | 214 | 6.1 | 12.2 | 0.04 | 0.60 | 0.25 | 88 | 1008.2 |
| 20260506043057 | 56 | 200 | 6.1 | 10.4 | 0.02 | 0.57 | 0.23 | 89 | 1008.4 |
| 20260506041553 | 56 | 161 | 3.5 | 8.7 | 0.00 | 0.56 | 0.21 | 89 | 1008.4 |
| 20260506040051 | 56 | 179 | 4.3 | 12.2 | 0.00 | 0.56 | 0.21 | 90 | 1008.4 |
| 20260506034602 | 55 | 340 | 0.9 | 2.6 | 0.00 | 0.56 | 0.21 | 90 | 1008.4 |
| 20260506033048 | 55 | 315 | 0.0 | 1.7 | 0.00 | 0.56 | 0.21 | 90 | 1008.4 |
| 20260506031547 | 55 | 315 | 0.0 | 1.7 | 0.00 | 0.56 | 0.21 | 90 | 1008.7 |
| 20260506030046 | 55 | 315 | 0.0 | 0.9 | 0.00 | 0.56 | 0.21 | 90 | 1008.9 |
| 20260506024600 | 55 | 315 | 0.0 | 0.9 | 0.00 | 0.56 | 0.21 | 90 | 1009.0 |
| 20260506023041 | 55 | 315 | 0.0 | 2.6 | 0.00 | 0.56 | 0.21 | 89 | 1009.4 |
| 20260506021540 | 55 | 307 | 0.0 | 3.5 | 0.00 | 0.56 | 0.21 | 89 | 1009.7 |
| 20260506020039 | 56 | 187 | 0.9 | 3.5 | 0.01 | 0.56 | 0.21 | 90 | 1009.6 |
| 20260506014538 | 55 | 169 | 0.9 | 6.1 | 0.01 | 0.56 | 0.21 | 90 | 1009.6 |
| 20260506013051 | 55 | 193 | 0.0 | 3.5 | 0.01 | 0.56 | 0.21 | 90 | 1009.6 |
| 20260506011535 | 55 | 132 | 0.0 | 0.9 | 0.01 | 0.56 | 0.21 | 90 | 1009.7 |
| 20260506010033 | 55 | 131 | 0.0 | 3.5 | 0.00 | 0.55 | 0.20 | 90 | 1009.9 |
| 20260506004532 | 55 | 163 | 1.7 | 6.1 | 0.00 | 0.55 | 0.20 | 90 | 1010.3 |
| 20260506003034 | 55 | 179 | 0.0 | 0.9 | 0.00 | 0.55 | 0.20 | 90 | 1010.4 |
| 20260506001528 | 55 | 107 | 0.0 | 0.9 | 0.00 | 0.55 | 0.20 | 90 | 1010.4 |
| 20260506000026 | 55 | 107 | 0.0 | 0.0 | 0.04 | 0.55 | 0.20 | 90 | 1010.6 |